CW6261 Weather Reports


Display with metric or nautical units.
time (UTC)temp
F
wind
direction
speed
MPH
gust
MPH
rain 1hr
in
rain 24hr
in
rain mn
in
humidity
%
barometer
mb
20260502203202 73 47 3.0 4.0 0.00 0.00 0.00 40 102.0
20260502201702 72 6 2.0 5.0 0.00 0.00 0.00 38 102.0
20260502201202 71 62 0.0 4.0 0.00 0.00 0.00 38 102.0
20260502200202 72 40 2.0 5.0 0.00 0.00 0.00 37 101.9
20260502195703 72 39 2.0 4.0 0.00 0.00 0.00 37 101.9
20260502195203 72 227 0.0 4.0 0.00 0.00 0.00 39 101.9
20260502194702 71 32 1.0 7.0 0.00 0.00 0.00 37 101.9
20260502194202 71 108 2.0 6.0 0.00 0.00 0.00 39 101.9
20260502193702 70 161 1.0 3.0 0.00 0.00 0.00 41 101.9
20260502193203 70 52 3.0 10.0 0.00 0.00 0.00 40 102.0
20260502192702 70 28 1.0 7.0 0.00 0.00 0.00 43 102.0
20260502192202 70 107 2.0 4.0 0.00 0.00 0.00 41 102.0
20260502191702 71 159 2.0 6.0 0.00 0.00 0.00 41 102.0
20260502191202 71 40 2.0 6.0 0.00 0.00 0.00 45 102.0
20260502190702 69 297 2.0 4.0 0.00 0.00 0.00 43 102.0
20260502190202 70 347 2.0 9.0 0.00 0.00 0.00 45 102.0
20260502185702 69 278 2.0 6.0 0.00 0.00 0.00 44 102.0
20260502185202 70 45 4.0 6.0 0.00 0.00 0.00 43 102.0
20260502183702 69 15 1.0 5.0 0.00 0.00 0.00 46 102.0
20260502183202 69 34 2.0 7.0 0.00 0.00 0.00 46 102.2
20260502182703 68 356 2.0 5.0 0.00 0.00 0.00 47 102.2
20260502182202 70 55 3.0 8.0 0.00 0.00 0.00 47 102.2
20260502181702 69 1 1.0 4.0 0.00 0.00 0.00 48 102.2
20260502180702 68 42 4.0 7.0 0.00 0.00 0.00 50 102.2
20260502180202 67 201 0.0 7.0 0.00 0.00 0.00 51 102.2
20260502170202 66 45 8.0 8.0 0.00 0.00 0.00 56 102.2
20260502164202 64 86 1.0 5.0 0.00 0.00 0.00 56 102.2
20260502163702 65 50 5.0 11.0 0.00 0.00 0.00 52 102.2
20260502163202 65 358 1.0 4.0 0.00 0.00 0.00 54 102.3
20260502162202 64 25 2.0 6.0 0.00 0.00 0.00 55 102.3
20260502161202 64 15 2.0 9.0 0.00 0.00 0.00 54 102.3
20260502160702 63 349 2.0 5.0 0.00 0.00 0.00 57 102.3
20260502160202 63 51 6.0 6.0 0.00 0.00 0.00 56 102.2
20260502151702 60 294 2.0 6.0 0.00 0.00 0.00 62 102.3
20260502151202 60 78 2.0 9.0 0.00 0.00 0.00 62 102.3
20260502150702 60 17 3.0 9.0 0.00 0.00 0.00 62 102.3
20260502150201 60 8 3.0 7.0 0.00 0.00 0.00 67 102.2
20260502130702 52 46 2.0 3.0 0.00 0.00 0.00 88 102.2
20260502130202 51 333 1.0 5.0 0.00 0.00 0.00 89 102.0
20260502123702 49 317 1.0 3.0 0.00 0.00 0.00 96 102.0
20260502123202 48 48 2.0 2.0 0.00 0.00 0.00 97 102.0
20260502122702 48 30 0.0 1.0 0.00 0.00 0.00 97 102.0
20260502122203 48 32 1.0 2.0 0.00 0.00 0.00 97 102.0
20260502121703 47 288 1.0 2.0 0.00 0.00 0.00 98 102.0
20260502121203 47 250 1.0 1.0 0.00 0.00 0.00 98 102.0
20260502120702 47 249 0.0 2.0 0.00 0.00 0.00 98 102.0
20260502120202 47 297 1.0 2.0 0.00 0.00 0.00 98 102.0
20260502115702 47 59 0.0 2.0 0.00 0.00 0.00 98 102.0
20260502115202 47 16 1.0 1.0 0.00 0.00 0.00 97 102.0
20260502114202 47 336 0.0 1.0 0.00 0.00 0.00 97 101.9
20260502113702 47 322 0.0 1.0 0.00 0.00 0.00 97 101.9
20260502113202 47 60 0.0 1.0 0.00 0.00 0.00 97 101.9
20260502111702 48 302 1.0 2.0 0.00 0.00 0.00 96 101.9
20260502111202 48 279 0.0 1.0 0.00 0.00 0.00 96 101.9
20260502110702 48 277 0.0 1.0 0.00 0.00 0.00 96 101.9
20260502110202 48 39 1.0 2.0 0.00 0.00 0.00 95 101.9
20260502105703 48 126 0.0 1.0 0.00 0.00 0.00 95 101.9
20260502105202 49 137 0.0 1.0 0.00 0.00 0.00 95 101.9
20260502104702 49 149 0.0 1.0 0.00 0.00 0.00 95 101.9
20260502104203 49 285 0.0 1.0 0.00 0.00 0.00 94 101.9
20260502103702 49 306 2.0 2.0 0.00 0.00 0.00 94 101.9
20260502103202 49 269 0.0 2.0 0.00 0.00 0.00 93 101.8
20260502102702 49 275 0.0 2.0 0.00 0.00 0.00 93 101.8
20260502102203 49 56 1.0 3.0 0.00 0.00 0.00 93 101.8
20260502101702 50 331 0.0 4.0 0.00 0.00 0.00 93 101.8
20260502101202 50 84 1.0 2.0 0.00 0.00 0.00 93 101.8
20260502100702 50 27 4.0 4.0 0.00 0.00 0.00 93 101.8
20260502100202 50 2 1.0 4.0 0.00 0.00 0.00 93 101.8
20260502091202 50 3 1.0 3.0 0.00 0.00 0.00 95 101.7
20260502090702 50 0 1.0 4.0 0.00 0.00 0.00 95 101.7
20260502090202 50 47 2.0 5.0 0.00 0.00 0.00 95 101.8
20260502071202 50 6 1.0 4.0 0.00 0.00 0.00 97 101.7
20260502070703 50 37 3.0 3.0 0.00 0.00 0.00 97 101.7
20260502070202 50 353 2.0 3.0 0.00 0.00 0.00 97 101.7
20260502065702 50 0 1.0 3.0 0.00 0.00 0.00 97 101.7
20260502065202 50 46 1.0 2.0 0.00 0.00 0.00 97 101.7
20260502064703 50 25 0.0 2.0 0.00 0.00 0.00 96 101.7
20260502064202 50 18 0.0 1.0 0.00 0.00 0.00 96 101.7
20260502063701 50 291 0.0 2.0 0.00 0.00 0.00 96 101.7
20260502062202 51 68 0.0 4.0 0.00 0.00 0.00 96 101.7
20260502061202 51 193 0.0 3.0 0.00 0.00 0.00 96 101.7
20260502060702 51 15 0.0 2.0 0.00 0.00 0.00 96 101.7
20260502060202 51 13 1.0 2.0 0.00 0.00 0.00 96 101.7
20260502055202 51 21 2.0 2.0 0.00 0.00 0.00 97 101.7
20260502054202 51 7 1.0 3.0 0.00 0.00 0.00 97 101.7
20260502053202 51 27 1.0 2.0 0.00 0.00 0.00 97 101.7
20260502052702 51 60 1.0 2.0 0.00 0.00 0.00 97 101.7
20260502052202 51 69 0.0 2.0 0.00 0.00 0.00 97 101.7
20260502051702 51 283 0.0 2.0 0.00 0.00 0.00 97 101.7
20260502050202 52 291 0.0 2.0 0.00 0.00 0.00 97 101.7
20260502045702 52 34 1.0 2.0 0.00 0.00 0.00 97 101.7
20260502044203 52 49 1.0 2.0 0.00 0.00 0.00 96 101.7
20260502043702 52 313 0.0 2.0 0.00 0.00 0.00 96 101.7
20260502042702 52 129 1.0 3.0 0.00 0.00 0.00 95 101.7
20260502041702 53 25 0.0 2.0 0.00 0.00 0.00 95 101.7
20260502041202 53 114 1.0 2.0 0.00 0.00 0.00 94 101.7
20260502040702 53 41 1.0 2.0 0.00 0.00 0.00 94 101.7
20260502040202 53 43 3.0 3.0 0.00 0.00 0.00 93 101.7
20260502035702 53 18 1.0 3.0 0.00 0.00 0.00 93 101.7
20260502035202 54 50 2.0 4.0 0.00 0.00 0.00 92 101.7
20260502034703 54 6 1.0 6.0 0.00 0.00 0.00 92 101.7
20260502034202 54 31 2.0 5.0 0.00 0.00 0.00 92 101.7
20260502033702 54 290 2.0 6.0 0.00 0.00 0.00 93 101.7
20260502033202 54 9 4.0 4.0 0.00 0.00 0.00 93 101.7
20260502032702 54 23 3.0 5.0 0.00 0.00 0.00 93 101.7
20260502032203 53 9 2.0 6.0 0.00 0.00 0.00 93 101.7
20260502031202 53 34 2.0 4.0 0.00 0.00 0.00 93 101.7
20260502030702 53 34 2.0 4.0 0.00 0.00 0.00 93 101.7
20260502030203 53 69 1.0 2.0 0.00 0.00 0.00 94 101.6
20260502025706 53 0 2.0 3.0 0.00 0.00 0.00 93 101.6
20260502025204 53 55 3.0 5.0 0.00 0.00 0.00 93 101.6
20260502024702 53 45 1.0 5.0 0.00 0.00 0.00 93 101.6
20260502024202 53 60 4.0 6.0 0.00 0.00 0.00 92 101.6
20260502023702 53 74 2.0 3.0 0.00 0.00 0.00 91 101.6
20260502023202 53 347 1.0 8.0 0.00 0.00 0.00 90 101.6
20260502022702 53 38 4.0 10.0 0.00 0.00 0.00 90 101.6
20260502022202 53 76 2.0 4.0 0.00 0.00 0.00 92 101.6
20260502021702 53 39 1.0 6.0 0.00 0.00 0.00 93 101.6
20260502021202 53 35 3.0 4.0 0.00 0.00 0.00 94 101.6
20260502020702 53 40 2.0 5.0 0.00 0.00 0.00 94 101.6
20260502020204 53 284 1.0 2.0 0.00 0.00 0.00 94 101.5
20260502015702 53 82 2.0 3.0 0.00 0.00 0.00 94 101.5
20260502015202 53 56 1.0 4.0 0.00 0.00 0.00 93 101.5
20260502014702 53 55 2.0 4.0 0.00 0.00 0.00 93 101.5
20260502014203 53 83 2.0 6.0 0.00 0.00 0.00 93 101.5
20260502013702 53 95 2.0 4.0 0.00 0.00 0.00 92 101.5
20260502013202 53 85 2.0 5.0 0.00 0.00 0.00 92 101.5
20260502012702 53 38 2.0 3.0 0.00 0.00 0.00 92 101.5
20260502011702 53 72 1.0 6.0 0.00 0.00 0.00 91 101.5
20260502011202 53 94 2.0 5.0 0.00 0.00 0.00 91 101.5
20260502010702 53 63 1.0 6.0 0.00 0.00 0.00 91 101.5
20260502010202 53 77 3.0 5.0 0.00 0.00 0.00 91 101.4
20260502005702 53 53 2.0 12.0 0.00 0.00 0.00 91 101.4
20260502005202 53 54 2.0 10.0 0.00 0.00 0.00 91 101.4
20260502004202 53 101 3.0 4.0 0.00 0.00 0.00 92 101.4
20260502003703 53 103 3.0 11.0 0.00 0.00 0.00 93 101.4
20260502003202 53 45 2.0 4.0 0.00 0.00 0.00 94 101.4
20260502002202 53 109 4.0 6.0 0.00 0.00 0.00 93 101.4
20260502001702 53 42 3.0 9.0 0.00 0.00 0.00 92 101.3
20260502000702 53 79 5.0 8.0 0.00 0.00 0.00 93 101.3
20260502000203 53 84 3.0 6.0 0.00 0.00 0.00 94 101.4
20260501235202 53 33 6.0 8.0 0.00 0.00 0.00 95 101.4
20260501234702 53 40 3.0 5.0 0.00 0.00 0.00 95 101.3
20260501234202 53 63 4.0 11.0 0.00 0.00 0.00 95 101.3
20260501233702 53 93 4.0 12.0 0.00 0.00 0.00 96 101.3
20260501233202 53 7 5.0 10.0 0.00 0.00 0.00 96 101.3
20260501232702 53 14 7.0 12.0 0.00 0.00 0.00 97 101.3
20260501232202 53 57 3.0 19.0 0.00 0.00 0.00 98 101.3
20260501231702 54 10 3.0 8.0 0.00 0.00 0.00 98 101.3
20260501231202 54 48 4.0 6.0 0.00 0.00 0.00 98 101.3
20260501230202 54 351 2.0 13.0 0.00 0.00 0.00 98 101.3
20260501225702 54 53 4.0 8.0 0.00 0.00 0.00 98 101.3
20260501224702 54 75 6.0 12.0 0.00 0.00 0.00 99 101.3
20260501224202 54 85 1.0 10.0 0.00 0.00 0.00 99 101.3
20260501223702 54 49 3.0 9.0 0.00 0.00 0.00 99 101.3
20260501222702 54 16 4.0 11.0 0.00 0.00 0.00 99 101.3
20260501222202 54 87 2.0 9.0 0.00 0.00 0.00 98 101.3
20260501221702 55 40 3.0 6.0 0.00 0.00 0.00 98 101.3
20260501221202 55 62 3.0 10.0 0.00 0.00 0.00 98 101.3
20260501220702 55 48 1.0 10.0 0.00 0.00 0.00 98 101.3
20260501220202 54 26 4.0 8.0 0.00 0.00 0.00 97 101.3
20260501215702 54 46 4.0 7.0 0.00 0.00 0.00 97 101.3
20260501215203 55 62 2.0 10.0 0.00 0.00 0.00 97 101.3
20260501214702 55 60 6.0 11.0 0.00 0.00 0.00 96 101.3
20260501214202 55 6 3.0 6.0 0.00 0.00 0.00 97 101.3
20260501213704 55 79 0.0 8.0 0.00 0.00 0.00 96 101.3
20260501212703 55 13 2.0 6.0 0.00 0.00 0.00 97 101.2
20260501212202 55 53 6.0 7.0 0.00 0.00 0.00 97 101.2
20260501211702 56 83 1.0 6.0 0.00 0.00 0.00 96 101.1
20260501211202 56 74 4.0 7.0 0.00 0.00 0.00 97 101.1
20260501210202 56 31 4.0 8.0 0.00 0.00 0.00 97 101.2
20260501205702 56 44 2.0 8.0 0.00 0.00 0.00 96 101.2
20260501205202 56 12 5.0 9.0 0.00 0.00 0.00 97 101.2
20260501204702 56 35 5.0 12.0 0.00 0.00 0.00 97 101.2
20260501204202 56 57 4.0 9.0 0.00 0.00 0.00 97 101.2
20260501203702 56 14 5.0 11.0 0.00 0.00 0.00 97 101.2